QPF
0.00 0.00 0.00 0.00 0.00 0.00 0.00 0.00 0.00 0.00 0.00 0.00 0.00 0.00 0.00 0.00 0.00 0.00 0.00 0.01 0.01 0.02 0.03 0.11 0.18 0.14 0.11 0.10 0.06 0.03 0.03 0.03 0.04 0.02 0.03 0.03 0.02 0.02 0.03 0.05 0.05 0.04 0.04 0.04
0.00 0.00 0.00 0.00 0.00 0.00 0.00 0.00 0.00 0.00 0.00 0.00 0.00 0.00 0.00 0.00 0.00 0.00 0.00 0.00 0.00 0.00 0.01 0.04 0.12 0.12 0.07 0.06 0.06 0.05 0.06 0.07 0.07 0.06 0.07 0.07 0.07 0.08 0.09 0.09 0.09 0.10 0.09 0.08
0.00 0.00 0.00 0.00 0.00 0.00 0.00 0.00 0.00 0.00 0.00 0.00 0.00 0.00 0.00 0.00 0.00 0.00 0.00 0.00 0.00 0.00 0.00 0.01 0.04 0.05 0.05 0.06 0.07 0.09 0.11 0.13 0.14 0.13 0.13 0.12 0.11 0.11 0.12 0.12 0.15 0.15 0.12 0.09
0.00 0.00 0.00 0.00 0.00 0.00 0.00 0.00 0.00 0.00 0.00 0.00 0.00 0.00 0.00 0.00 0.00 0.00 0.00 0.00 0.00 0.00 0.00 0.01 0.02 0.02 0.04 0.07 0.10 0.12 0.13 0.16 0.21 0.23 0.23 0.21 0.19 0.17 0.17 0.18 0.18 0.15 0.12 0.09
0.00 0.00 0.00 0.00 0.00 0.00 0.00 0.00 0.00 0.00 0.00 0.00 0.00 0.00 0.00 0.00 0.00 0.00 0.00 0.00 0.00 0.00 0.00 0.01 0.02 0.04 0.07 0.11 0.15 0.16 0.19 0.26 0.32 0.33 0.32 0.30 0.28 0.23 0.21 0.20 0.18 0.16 0.12 0.08
0.00 0.00 0.00 0.00 0.00 0.00 0.00 0.00 0.00 0.00 0.00 0.00 0.00 0.00 0.00 0.00 0.00 0.00 0.00 0.00 0.00 0.00 0.01 0.02 0.04 0.06 0.10 0.14 0.17 0.18 0.20 0.24 0.25 0.25 0.27 0.28 0.25 0.22 0.20 0.17 0.15 0.11 0.08 0.05
0.00 0.00 0.00 0.00 0.00 0.00 0.00 0.00 0.00 0.00 0.00 0.00 0.00 0.00 0.00 0.00 0.00 0.00 0.00 0.00 0.00 0.01 0.02 0.03 0.04 0.06 0.09 0.14 0.18 0.17 0.16 0.16 0.18 0.20 0.18 0.17 0.16 0.13 0.12 0.10 0.09 0.07 0.05 0.04
0.00 0.00 0.00 0.00 0.00 0.00 0.00 0.00 0.00 0.00 0.00 0.00 0.00 0.00 0.00 0.00 0.00 0.00 0.00 0.01 0.01 0.02 0.03 0.04 0.06 0.09 0.13 0.17 0.19 0.16 0.13 0.11 0.09 0.09 0.10 0.11 0.10 0.09 0.08 0.06 0.06 0.05 0.03 0.02
0.00 0.00 0.00 0.00 0.00 0.00 0.00 0.00 0.00 0.00 0.00 0.00 0.00 0.00 0.00 0.00 0.00 0.00 0.01 0.01 0.02 0.03 0.05 0.08 0.12 0.17 0.20 0.22 0.20 0.14 0.09 0.05 0.04 0.04 0.04 0.04 0.05 0.06 0.06 0.05 0.04 0.02 0.01 0.01
0.00 0.00 0.00 0.00 0.00 0.00 0.00 0.00 0.00 0.00 0.00 0.00 0.00 0.00 0.00 0.01 0.00 0.01 0.01 0.02 0.02 0.05 0.09 0.15 0.19 0.20 0.19 0.15 0.11 0.08 0.06 0.04 0.03 0.03 0.03 0.03 0.04 0.04 0.04 0.03 0.02 0.02 0.01 0.01
0.00 0.00 0.00 0.00 0.00 0.00 0.00 0.00 0.00 0.00 0.00 0.00 0.00 0.00 0.01 0.01 0.00 0.01 0.01 0.02 0.03 0.07 0.11 0.16 0.19 0.16 0.12 0.09 0.05 0.03 0.03 0.02 0.01 0.02 0.02 0.02 0.03 0.03 0.02 0.02 0.02 0.02 0.01 0.01
0.00 0.00 0.00 0.00 0.00 0.00 0.00 0.00 0.00 0.00 0.00 0.00 0.00 0.01 0.01 0.01 0.01 0.01 0.01 0.03 0.07 0.11 0.12 0.15 0.17 0.15 0.09 0.05 0.02 0.01 0.01 0.01 0.01 0.02 0.01 0.02 0.02 0.02 0.02 0.02 0.02 0.02 0.01 0.01
0.00 0.00 0.00 0.00 0.00 0.00 0.00 0.00 0.00 0.00 0.00 0.00 0.00 0.02 0.02 0.02 0.01 0.01 0.01 0.03 0.09 0.15 0.22 0.22 0.16 0.10 0.05 0.02 0.01 0.01 0.01 0.01 0.01 0.01 0.01 0.01 0.02 0.02 0.03 0.02 0.02 0.02 0.02 0.02
0.00 0.00 0.00 0.00 0.00 0.00 0.00 0.00 0.00 0.00 0.01 0.01 0.01 0.03 0.03 0.02 0.01 0.01 0.02 0.03 0.04 0.09 0.19 0.16 0.09 0.05 0.02 0.01 0.01 0.01 0.01 0.01 0.01 0.01 0.02 0.02 0.03 0.03 0.03 0.04 0.04 0.04 0.04 0.03
0.00 0.00 0.00 0.00 0.00 0.00 0.00 0.00 0.00 0.01 0.01 0.01 0.02 0.02 0.02 0.02 0.02 0.02 0.02 0.03 0.03 0.05 0.09 0.08 0.06 0.03 0.02 0.02 0.01 0.01 0.01 0.01 0.02 0.02 0.03 0.04 0.05 0.05 0.06 0.06 0.06 0.06 0.05 0.04
0.00 0.00 0.00 0.00 0.00 0.00 0.00 0.00 0.00 0.00 0.00 0.01 0.01 0.04 0.04 0.02 0.02 0.03 0.03 0.03 0.03 0.04 0.04 0.04 0.04 0.03 0.02 0.02 0.02 0.02 0.03 0.04 0.05 0.07 0.08 0.08 0.08 0.08 0.08 0.08 0.07 0.06 0.05 0.04
0.00 0.00 0.00 0.00 0.00 0.00 0.00 0.00 0.00 0.00 0.00 0.00 0.01 0.02 0.03 0.03 0.02 0.02 0.02 0.02 0.02 0.02 0.02 0.02 0.02 0.01 0.02 0.02 0.03 0.04 0.05 0.08 0.09 0.11 0.12 0.12 0.11 0.10 0.09 0.08 0.07 0.06 0.04 0.02
0.01 0.01 0.00 0.00 0.00 0.00 0.01 0.01 0.00 0.00 0.01 0.01 0.01 0.01 0.02 0.01 0.01 0.00 0.00 0.00 0.00 0.00 0.01 0.01 0.01 0.02 0.02 0.03 0.05 0.06 0.08 0.11 0.13 0.14 0.15 0.14 0.12 0.09 0.08 0.07 0.05 0.03 0.02 0.01
0.01 0.01 0.01 0.01 0.00 0.01 0.02 0.01 0.01 0.01 0.02 0.01 0.01 0.01 0.01 0.01 0.00 0.00 0.00 0.00 0.00 0.00 0.00 0.01 0.01 0.02 0.03 0.05 0.07 0.09 0.11 0.13 0.14 0.13 0.11 0.08 0.07 0.06 0.04 0.03 0.02 0.01 0.01 0.01
0.03 0.03 0.03 0.02 0.02 0.03 0.04 0.01 0.01 0.02 0.04 0.01 0.01 0.01 0.01 0.01 0.00 0.00 0.00 0.00 0.00 0.00 0.00 0.01 0.01 0.03 0.04 0.06 0.07 0.08 0.10 0.09 0.08 0.07 0.05 0.04 0.03 0.03 0.02 0.01 0.01 0.01 0.01 0.00
0.08 0.06 0.05 0.04 0.03 0.05 0.03 0.01 0.02 0.05 0.04 0.02 0.02 0.01 0.01 0.01 0.00 0.00 0.00 0.00 0.00 0.00 0.01 0.01 0.02 0.03 0.04 0.05 0.05 0.06 0.06 0.06 0.04 0.03 0.02 0.02 0.01 0.01 0.01 0.00 0.00 0.00 0.00 0.00
0.12 0.11 0.09 0.08 0.06 0.07 0.03 0.02 0.03 0.03 0.03 0.02 0.01 0.01 0.00 0.00 0.00 0.00 0.00 0.00 0.01 0.01 0.01 0.01 0.02 0.02 0.03 0.03 0.03 0.03 0.02 0.02 0.01 0.01 0.01 0.01 0.01 0.00 0.00 0.00 0.00 0.00 0.00 0.00
0.07 0.08 0.09 0.09 0.09 0.07 0.04 0.03 0.02 0.02 0.02 0.01 0.01 0.00 0.00 0.00 0.00 0.00 0.00 0.01 0.01 0.01 0.01 0.01 0.01 0.02 0.02 0.02 0.02 0.02 0.01 0.01 0.01 0.01 0.01 0.00 0.00 0.00 0.00 0.00 0.00 0.00 0.00 0.00
0.05 0.03 0.05 0.07 0.08 0.05 0.03 0.01 0.01 0.01 0.01 0.01 0.00 0.00 0.00 0.00 0.01 0.01 0.01 0.01 0.01 0.01 0.01 0.01 0.01 0.02 0.01 0.01 0.01 0.01 0.01 0.01 0.01 0.01 0.00 0.00 0.00 0.00 0.00 0.00 0.00 0.00 0.00 0.00
0.02 0.02 0.03 0.05 0.06 0.04 0.01 0.00 0.00 0.00 0.00 0.00 0.00 0.00 0.01 0.01 0.01 0.01 0.01 0.01 0.01 0.01 0.01 0.01 0.01 0.01 0.01 0.01 0.01 0.00 0.00 0.00 0.00 0.00 0.01 0.00 0.00 0.00 0.00 0.00 0.00 0.00 0.00 0.00
0.02 0.02 0.03 0.04 0.05 0.03 0.01 0.00 0.00 0.00 0.00 0.00 0.00 0.01 0.01 0.02 0.02 0.01 0.01 0.01 0.01 0.01 0.01 0.01 0.01 0.01 0.00 0.00 0.00 0.00 0.00 0.00 0.00 0.00 0.00 0.00 0.00 0.00 0.00 0.00 0.00 0.00 0.00 0.00
MSLP
1011.15 1012.07 1012.77 1013.20 1013.37 1013.33 1013.14 1012.86 1012.55 1012.23 1011.90 1011.53 1011.12 1010.62 1010.05 1009.40 1008.72 1008.07 1007.50 1007.05 1006.76 1006.63 1006.63 1006.73 1006.89 1007.09 1007.30 1007.53 1007.80 1008.15 1008.61 1009.18 1009.88 1010.67 1011.52 1012.36 1013.15 1013.84 1014.42 1014.89 1015.26 1015.59 1015.91 1016.24
1011.39 1012.14 1012.67 1012.96 1013.06 1013.03 1012.94 1012.82 1012.70 1012.57 1012.38 1012.08 1011.62 1010.99 1010.19 1009.27 1008.32 1007.42 1006.67 1006.11 1005.80 1005.71 1005.80 1006.02 1006.30 1006.59 1006.87 1007.13 1007.43 1007.78 1008.26 1008.89 1009.65 1010.55 1011.51 1012.47 1013.37 1014.16 1014.81 1015.32 1015.73 1016.07 1016.39 1016.73
1011.40 1011.98 1012.33 1012.49 1012.54 1012.54 1012.57 1012.65 1012.76 1012.84 1012.80 1012.57 1012.09 1011.32 1010.31 1009.13 1007.89 1006.75 1005.80 1005.14 1004.81 1004.77 1004.99 1005.36 1005.80 1006.23 1006.62 1006.97 1007.32 1007.71 1008.21 1008.86 1009.67 1010.62 1011.64 1012.68 1013.65 1014.50 1015.20 1015.74 1016.16 1016.50 1016.82 1017.15
1011.16 1011.55 1011.74 1011.79 1011.82 1011.89 1012.08 1012.38 1012.73 1013.04 1013.19 1013.06 1012.57 1011.70 1010.50 1009.08 1007.60 1006.23 1005.11 1004.35 1004.00 1004.03 1004.37 1004.91 1005.53 1006.13 1006.67 1007.13 1007.54 1007.97 1008.48 1009.13 1009.93 1010.87 1011.90 1012.94 1013.93 1014.80 1015.50 1016.05 1016.48 1016.82 1017.13 1017.45
1010.70 1010.90 1010.94 1010.92 1010.95 1011.13 1011.49 1012.03 1012.65 1013.21 1013.55 1013.54 1013.09 1012.17 1010.85 1009.25 1007.57 1006.01 1004.76 1003.93 1003.57 1003.66 1004.13 1004.83 1005.62 1006.39 1007.07 1007.63 1008.11 1008.56 1009.06 1009.66 1010.41 1011.28 1012.24 1013.23 1014.18 1015.01 1015.69 1016.23 1016.64 1016.97 1017.27 1017.58
1010.08 1010.11 1010.03 1009.96 1010.02 1010.31 1010.86 1011.64 1012.51 1013.32 1013.88 1014.02 1013.65 1012.73 1011.36 1009.66 1007.86 1006.20 1004.85 1003.98 1003.63 1003.78 1004.35 1005.18 1006.12 1007.04 1007.84 1008.49 1009.01 1009.45 1009.90 1010.43 1011.06 1011.82 1012.66 1013.54 1014.39 1015.14 1015.77 1016.28 1016.67 1016.98 1017.28 1017.57
1009.41 1009.29 1009.11 1009.01 1009.11 1009.52 1010.24 1011.22 1012.33 1013.36 1014.11 1014.42 1014.16 1013.32 1011.97 1010.27 1008.46 1006.76 1005.40 1004.53 1004.20 1004.40 1005.05 1005.97 1007.01 1008.02 1008.90 1009.61 1010.14 1010.56 1010.94 1011.36 1011.86 1012.46 1013.14 1013.87 1014.59 1015.25 1015.80 1016.25 1016.61 1016.92 1017.20 1017.49
1008.82 1008.57 1008.31 1008.18 1008.33 1008.82 1009.67 1010.81 1012.08 1013.28 1014.21 1014.67 1014.56 1013.84 1012.60 1011.00 1009.26 1007.63 1006.32 1005.49 1005.20 1005.44 1006.13 1007.10 1008.19 1009.25 1010.16 1010.88 1011.40 1011.78 1012.08 1012.38 1012.74 1013.18 1013.70 1014.27 1014.85 1015.38 1015.85 1016.24 1016.57 1016.85 1017.13 1017.42
1008.42 1008.05 1007.73 1007.59 1007.75 1008.29 1009.20 1010.41 1011.77 1013.07 1014.11 1014.70 1014.73 1014.18 1013.12 1011.69 1010.12 1008.64 1007.45 1006.71 1006.49 1006.76 1007.46 1008.43 1009.51 1010.56 1011.46 1012.16 1012.66 1013.00 1013.23 1013.43 1013.67 1013.97 1014.34 1014.76 1015.20 1015.63 1016.01 1016.34 1016.63 1016.90 1017.17 1017.45
1008.26 1007.82 1007.46 1007.30 1007.45 1007.98 1008.87 1010.07 1011.41 1012.72 1013.80 1014.48 1014.65 1014.28 1013.44 1012.26 1010.93 1009.68 1008.67 1008.06 1007.91 1008.20 1008.88 1009.80 1010.83 1011.82 1012.68 1013.35 1013.82 1014.12 1014.31 1014.45 1014.61 1014.81 1015.07 1015.37 1015.70 1016.03 1016.34 1016.62 1016.87 1017.11 1017.37 1017.64
1008.37 1007.91 1007.54 1007.36 1007.47 1007.93 1008.74 1009.82 1011.06 1012.28 1013.32 1014.03 1014.31 1014.13 1013.54 1012.64 1011.61 1010.63 1009.85 1009.40 1009.33 1009.64 1010.27 1011.12 1012.05 1012.96 1013.74 1014.37 1014.81 1015.10 1015.28 1015.41 1015.53 1015.69 1015.89 1016.12 1016.37 1016.63 1016.87 1017.10 1017.31 1017.53 1017.76 1018.02
1008.73 1008.29 1007.93 1007.73 1007.80 1008.15 1008.81 1009.72 1010.77 1011.83 1012.77 1013.46 1013.81 1013.80 1013.46 1012.87 1012.17 1011.49 1010.96 1010.68 1010.70 1011.02 1011.59 1012.33 1013.15 1013.94 1014.64 1015.21 1015.63 1015.93 1016.13 1016.29 1016.43 1016.59 1016.77 1016.97 1017.17 1017.38 1017.57 1017.75 1017.93 1018.11 1018.31 1018.54
1009.26 1008.89 1008.57 1008.38 1008.39 1008.63 1009.10 1009.79 1010.61 1011.47 1012.26 1012.89 1013.29 1013.43 1013.33 1013.04 1012.66 1012.29 1012.01 1011.91 1012.01 1012.33 1012.84 1013.46 1014.14 1014.81 1015.41 1015.92 1016.33 1016.65 1016.90 1017.11 1017.30 1017.49 1017.68 1017.87 1018.05 1018.22 1018.37 1018.52 1018.65 1018.80 1018.97 1019.16
1009.92 1009.64 1009.39 1009.22 1009.19 1009.31 1009.61 1010.06 1010.64 1011.28 1011.91 1012.45 1012.88 1013.15 1013.26 1013.25 1013.18 1013.09 1013.06 1013.12 1013.31 1013.62 1014.05 1014.55 1015.09 1015.62 1016.13 1016.58 1016.97 1017.31 1017.61 1017.88 1018.13 1018.36 1018.58 1018.77 1018.94 1019.08 1019.20 1019.30 1019.40 1019.51 1019.65 1019.80
1010.64 1010.46 1010.30 1010.17 1010.11 1010.14 1010.28 1010.53 1010.89 1011.32 1011.79 1012.25 1012.69 1013.06 1013.36 1013.60 1013.79 1013.97 1014.14 1014.35 1014.61 1014.91 1015.26 1015.65 1016.05 1016.46 1016.86 1017.24 1017.61 1017.97 1018.30 1018.61 1018.91 1019.18 1019.41 1019.61 1019.76 1019.88 1019.97 1020.04 1020.10 1020.18 1020.28 1020.40
1011.34 1011.28 1011.20 1011.13 1011.06 1011.03 1011.06 1011.15 1011.33 1011.59 1011.93 1012.33 1012.77 1013.22 1013.68 1014.12 1014.53 1014.92 1015.28 1015.61 1015.92 1016.21 1016.49 1016.77 1017.05 1017.34 1017.64 1017.96 1018.29 1018.63 1018.97 1019.31 1019.63 1019.91 1020.15 1020.34 1020.47 1020.56 1020.62 1020.66 1020.70 1020.75 1020.82 1020.91
1012.02 1012.04 1012.05 1012.02 1011.97 1011.92 1011.87 1011.87 1011.92 1012.07 1012.31 1012.66 1013.10 1013.62 1014.19 1014.79 1015.37 1015.92 1016.42 1016.84 1017.20 1017.48 1017.71 1017.90 1018.08 1018.26 1018.47 1018.71 1018.99 1019.30 1019.63 1019.96 1020.27 1020.55 1020.77 1020.93 1021.04 1021.10 1021.13 1021.15 1021.17 1021.20 1021.25 1021.32
1012.63 1012.71 1012.77 1012.80 1012.78 1012.73 1012.66 1012.60 1012.59 1012.67 1012.86 1013.18 1013.62 1014.18 1014.83 1015.53 1016.24 1016.90 1017.49 1017.98 1018.37 1018.65 1018.84 1018.97 1019.07 1019.17 1019.30 1019.48 1019.70 1019.97 1020.26 1020.55 1020.83 1021.07 1021.25 1021.38 1021.46 1021.50 1021.51 1021.52 1021.53 1021.56 1021.61 1021.65
1013.18 1013.28 1013.37 1013.43 1013.45 1013.42 1013.36 1013.30 1013.28 1013.33 1013.49 1013.80 1014.24 1014.82 1015.51 1016.27 1017.03 1017.76 1018.41 1018.95 1019.35 1019.63 1019.81 1019.90 1019.95 1020.00 1020.08 1020.19 1020.36 1020.57 1020.81 1021.06 1021.28 1021.48 1021.62 1021.72 1021.77 1021.80 1021.80 1021.81 1021.83 1021.86 1021.91 1021.95
1013.66 1013.75 1013.85 1013.93 1013.98 1013.99 1013.96 1013.93 1013.92 1013.98 1014.15 1014.44 1014.88 1015.46 1016.15 1016.91 1017.70 1018.45 1019.12 1019.68 1020.10 1020.39 1020.56 1020.65 1020.68 1020.70 1020.74 1020.81 1020.93 1021.09 1021.27 1021.46 1021.64 1021.79 1021.90 1021.97 1022.01 1022.03 1022.05 1022.07 1022.10 1022.15 1022.20 1022.23
1014.07 1014.13 1014.22 1014.31 1014.39 1014.44 1014.47 1014.48 1014.51 1014.60 1014.77 1015.06 1015.49 1016.04 1016.70 1017.44 1018.21 1018.94 1019.61 1020.17 1020.60 1020.90 1021.09 1021.18 1021.22 1021.23 1021.25 1021.30 1021.38 1021.49 1021.63 1021.77 1021.90 1022.01 1022.10 1022.16 1022.20 1022.24 1022.28 1022.33 1022.39 1022.45 1022.50 1022.52
1014.41 1014.43 1014.51 1014.61 1014.72 1014.82 1014.90 1014.97 1015.06 1015.18 1015.37 1015.65 1016.05 1016.57 1017.18 1017.86 1018.58 1019.28 1019.92 1020.47 1020.90 1021.22 1021.42 1021.53 1021.58 1021.60 1021.62 1021.65 1021.70 1021.77 1021.87 1021.97 1022.08 1022.17 1022.25 1022.32 1022.38 1022.44 1022.52 1022.60 1022.69 1022.76 1022.82 1022.83
1014.68 1014.68 1014.75 1014.87 1015.01 1015.16 1015.30 1015.44 1015.57 1015.73 1015.94 1016.22 1016.59 1017.05 1017.61 1018.22 1018.87 1019.52 1020.12 1020.64 1021.07 1021.40 1021.62 1021.75 1021.82 1021.85 1021.86 1021.87 1021.90 1021.95 1022.02 1022.09 1022.18 1022.27 1022.36 1022.45 1022.54 1022.65 1022.76 1022.88 1022.99 1023.09 1023.14 1023.13
1014.87 1014.87 1014.94 1015.09 1015.28 1015.49 1015.69 1015.89 1016.09 1016.29 1016.51 1016.79 1017.12 1017.53 1018.02 1018.56 1019.14 1019.73 1020.28 1020.78 1021.19 1021.52 1021.75 1021.89 1021.97 1022.00 1022.01 1022.01 1022.02 1022.04 1022.08 1022.15 1022.23 1022.32 1022.43 1022.56 1022.69 1022.84 1023.00 1023.15 1023.29 1023.39 1023.44 1023.41
1014.99 1014.99 1015.10 1015.28 1015.53 1015.80 1016.07 1016.34 1016.59 1016.83 1017.07 1017.34 1017.65 1018.02 1018.45 1018.92 1019.43 1019.96 1020.46 1020.93 1021.32 1021.64 1021.87 1022.01 1022.09 1022.11 1022.11 1022.09 1022.07 1022.07 1022.09 1022.14 1022.23 1022.34 1022.48 1022.64 1022.82 1023.01 1023.20 1023.38 1023.53 1023.64 1023.68 1023.64
1015.01 1015.05 1015.20 1015.44 1015.74 1016.07 1016.42 1016.75 1017.05 1017.33 1017.60 1017.87 1018.17 1018.50 1018.87 1019.30 1019.75 1020.22 1020.68 1021.11 1021.48 1021.78 1022.00 1022.13 1022.20 1022.20 1022.17 1022.13 1022.08 1022.05 1022.06 1022.11 1022.19 1022.32 1022.49 1022.69 1022.91 1023.14 1023.36 1023.56 1023.72 1023.82 1023.84 1023.79
Thickness
5734 5717 5712 5721 5728 5728 5730 5726 5724 5743 5764 5760 5757 5763 5782 5799 5796 5794 5793 5794 5794 5798 5804 5803 5801 5799 5793 5788 5784 5780 5775 5767 5759 5749 5742 5734 5728 5723 5718 5713 5709 5706 5701 5696
5714 5709 5724 5731 5733 5730 5725 5718 5722 5739 5760 5759 5754 5758 5775 5790 5794 5797 5796 5797 5798 5796 5796 5796 5795 5792 5788 5784 5780 5774 5770 5764 5757 5748 5739 5731 5722 5714 5707 5702 5697 5694 5690 5685
5702 5717 5730 5726 5722 5720 5719 5716 5721 5728 5748 5752 5750 5743 5757 5777 5791 5798 5799 5801 5802 5799 5795 5795 5793 5788 5783 5778 5775 5770 5764 5758 5749 5741 5731 5721 5712 5703 5696 5690 5685 5682 5679 5675
5705 5720 5723 5719 5717 5718 5710 5732 5733 5732 5726 5719 5735 5709 5738 5760 5771 5782 5788 5791 5794 5796 5796 5794 5791 5784 5779 5774 5769 5762 5755 5746 5737 5730 5720 5712 5704 5695 5687 5682 5675 5671 5668 5664
5704 5718 5716 5714 5724 5727 5723 5740 5736 5735 5725 5714 5720 5708 5721 5749 5758 5771 5780 5786 5789 5791 5790 5788 5785 5781 5774 5768 5760 5753 5744 5735 5728 5720 5712 5705 5696 5688 5680 5673 5667 5662 5657 5653
5710 5725 5724 5725 5737 5738 5739 5735 5728 5714 5701 5690 5709 5706 5706 5736 5753 5766 5777 5783 5785 5785 5782 5778 5774 5768 5761 5754 5747 5739 5732 5724 5718 5712 5705 5698 5690 5681 5672 5665 5659 5653 5647 5642
5697 5713 5727 5734 5724 5732 5730 5704 5680 5681 5669 5679 5707 5705 5708 5743 5758 5765 5769 5774 5777 5776 5770 5764 5758 5752 5745 5738 5731 5724 5718 5710 5705 5699 5693 5687 5681 5673 5665 5659 5652 5645 5638 5631
5676 5688 5719 5731 5725 5717 5718 5705 5676 5666 5664 5676 5701 5698 5714 5743 5756 5763 5764 5762 5761 5758 5754 5750 5743 5737 5729 5722 5715 5709 5703 5696 5691 5686 5680 5675 5669 5663 5655 5649 5643 5636 5629 5621
5679 5689 5725 5737 5742 5731 5714 5705 5708 5686 5680 5673 5681 5702 5719 5734 5739 5743 5744 5743 5740 5739 5736 5731 5725 5719 5713 5706 5699 5692 5687 5682 5677 5672 5667 5662 5655 5650 5643 5637 5631 5624 5617 5610
5693 5689 5713 5732 5739 5734 5729 5720 5691 5676 5663 5657 5676 5688 5689 5705 5713 5722 5724 5723 5722 5721 5719 5715 5709 5703 5697 5690 5685 5680 5674 5668 5663 5659 5654 5648 5641 5635 5629 5623 5616 5610 5603 5597
5695 5682 5696 5711 5713 5710 5717 5713 5700 5680 5675 5660 5659 5667 5693 5694 5703 5707 5709 5709 5708 5706 5702 5698 5693 5688 5683 5676 5670 5665 5660 5655 5649 5644 5639 5633 5626 5621 5615 5608 5601 5595 5588 5582
5683 5675 5675 5694 5714 5724 5717 5709 5697 5677 5673 5670 5661 5658 5686 5686 5692 5696 5697 5698 5694 5690 5686 5682 5678 5673 5668 5661 5656 5651 5646 5640 5634 5629 5623 5617 5611 5605 5598 5591 5585 5579 5572 5566
5674 5664 5658 5670 5681 5697 5699 5700 5699 5688 5673 5663 5653 5650 5671 5674 5678 5682 5683 5682 5678 5674 5669 5664 5660 5655 5649 5644 5639 5634 5629 5623 5618 5613 5606 5599 5593 5586 5579 5572 5567 5561 5555 5549
5672 5653 5649 5648 5656 5672 5677 5685 5688 5678 5659 5656 5656 5648 5652 5656 5660 5663 5665 5664 5661 5658 5653 5648 5642 5637 5631 5625 5621 5616 5611 5605 5600 5594 5587 5579 5572 5567 5560 5554 5548 5543 5537 5531
5655 5644 5652 5657 5667 5672 5673 5676 5679 5673 5668 5655 5650 5645 5641 5643 5646 5649 5650 5649 5647 5642 5637 5631 5625 5618 5612 5606 5601 5596 5590 5584 5579 5573 5566 5558 5552 5547 5542 5536 5530 5524 5519 5513
5638 5637 5641 5643 5658 5662 5662 5667 5670 5665 5662 5653 5644 5634 5635 5633 5635 5634 5634 5634 5631 5625 5620 5614 5607 5601 5594 5588 5583 5577 5570 5563 5558 5552 5545 5539 5533 5528 5522 5516 5510 5505 5500 5495
5621 5623 5620 5621 5638 5645 5633 5644 5649 5644 5646 5646 5636 5629 5623 5620 5618 5615 5614 5614 5611 5607 5601 5595 5589 5582 5575 5569 5563 5557 5550 5545 5539 5533 5526 5521 5515 5509 5504 5499 5493 5488 5483 5478
5612 5609 5602 5606 5616 5607 5611 5631 5633 5627 5624 5630 5625 5617 5610 5605 5599 5595 5593 5592 5589 5585 5580 5574 5568 5562 5556 5550 5544 5538 5532 5527 5521 5515 5509 5504 5498 5492 5487 5482 5477 5472 5468 5463
5608 5603 5594 5590 5594 5599 5609 5615 5617 5612 5602 5608 5606 5600 5594 5590 5588 5579 5574 5571 5568 5564 5559 5554 5549 5544 5539 5533 5527 5521 5515 5509 5504 5498 5493 5488 5482 5477 5472 5467 5463 5458 5453 5448
5597 5595 5586 5582 5583 5583 5590 5605 5614 5605 5587 5594 5593 5588 5585 5583 5579 5567 5558 5554 5550 5546 5542 5537 5532 5527 5522 5516 5511 5505 5499 5494 5489 5484 5479 5474 5469 5464 5459 5454 5449 5444 5439 5434
5575 5576 5575 5573 5571 5577 5584 5597 5604 5586 5578 5581 5581 5578 5575 5571 5565 5553 5545 5539 5535 5531 5527 5522 5517 5511 5506 5501 5496 5491 5486 5481 5476 5472 5467 5462 5457 5451 5446 5440 5435 5430 5425 5420
5562 5563 5566 5566 5562 5565 5576 5582 5576 5570 5571 5569 5566 5563 5560 5554 5546 5539 5532 5527 5522 5517 5512 5508 5502 5497 5493 5489 5484 5478 5474 5470 5466 5461 5455 5450 5445 5440 5434 5427 5421 5416 5411 5406
5559 5560 5559 5559 5556 5559 5564 5564 5564 5563 5560 5557 5554 5551 5549 5542 5534 5527 5520 5514 5509 5504 5499 5494 5490 5485 5481 5478 5473 5468 5464 5461 5456 5450 5443 5438 5433 5427 5421 5414 5408 5402 5397 5392
5557 5563 5556 5552 5551 5551 5552 5553 5553 5553 5551 5549 5546 5541 5537 5529 5521 5514 5508 5502 5497 5493 5489 5484 5480 5476 5472 5469 5465 5461 5458 5453 5447 5440 5433 5427 5421 5414 5408 5402 5396 5390 5385 5381
5554 5556 5550 5546 5544 5542 5541 5541 5541 5540 5539 5536 5533 5529 5524 5518 5510 5504 5498 5493 5489 5486 5481 5477 5473 5469 5465 5462 5459 5455 5451 5445 5438 5431 5424 5418 5411 5404 5397 5392 5386 5382 5378 5375
5548 5547 5545 5542 5543 5537 5533 5532 5533 5530 5527 5524 5521 5516 5512 5508 5502 5496 5491 5487 5484 5480 5476 5471 5467 5464 5460 5456 5452 5448 5443 5437 5430 5422 5415 5408 5401 5395 5389 5383 5378 5376 5373 5371